Preview of NWS' New Version of Forecast
This preview is not operational and should not be used for support decisions.

Regional Weather Roundup (RWR)

Issued by National Weather Service (NWS)

                            
000
ASUS45 KBOI 232110
RWRID 

IDAHO REGIONAL WEATHER ROUNDUP
NATIONAL WEATHER SERVICE BOISE ID
300 PM MDT TUE APR 23 2019

NOTE: "FAIR" INDICATES FEW OR NO CLOUDS BELOW 12000 FEET
WITH NO SIGNIFICANT WEATHER AND/OR OBSTRUCTIONS TO VISIBILITY

IDZ012-014-232200-
SOUTHWEST IDAHO

  
CITY           SKY/WX    TMP DP  RH WIND       PRES   REMARKS
BOISE          FAIR      73  46  38 NW9       30.11F                  
CALDWELL       FAIR      73  48  41 W3        30.10F                  
MOUNTAIN HOME  FAIR      73  44  35 NW15      30.10F                  
$$

IDZ016-017-232200-
SOUTHCENTRAL IDAHO

  
CITY           SKY/WX    TMP DP  RH WIND       PRES   REMARKS
BURLEY         FAIR      68  38  33 W13G22    30.11F                  
JEROME         FAIR      67  45  45 W12G21    30.13F                  
TWIN FALLS     FAIR      69  44  40 W20G25    30.13F                  
$$

IDZ019>023-232200-
SOUTHEAST IDAHO

  
CITY           SKY/WX    TMP DP  RH WIND       PRES   REMARKS
IDAHO FALLS    FAIR      64  36  35 W12G17    30.13F                  
POCATELLO      FAIR      66  37  34 SW13      30.13F                  
REXBURG        FAIR      65  37  35 SW10      30.11F                  
$$

IDZ006-010-011-018-031-032-232200-
CENTRAL IDAHO MOUNTAINS

  
CITY           SKY/WX    TMP DP  RH WIND       PRES   REMARKS
MCCALL         PTSUNNY   58  38  47 S5        30.14F                  
HAILEY         MOSUNNY   64  41  42 SE12G21   30.14F                  
STANLEY          N/A     58  32  37 VRB5      30.19F                  
SALMON         PTSUNNY   62  42  47 VRB3      30.08F                  
CHALLIS        PTSUNNY   72  33  24 W9        30.09F                  
$$

IDZ002-004-006-007-026-232200-
NORTHERN IDAHO

  
CITY           SKY/WX    TMP DP  RH WIND       PRES   REMARKS
LEWISTON       CLOUDY    66  52  60 CALM      30.06S                  
LOWELL           N/A     52  50  93 VRB5      30.12F                  
COEUR D'ALENE  CLOUDY    63  47  55 SW16      30.02F                  
MULLAN PASS    CLOUDY    42  37  82 W9G17     30.07S                  
$$